Back to catalog

STARLINK-35205

AliveCommunicationsVLEO
NORAD 65679·PAYLOAD·🇺🇸 United States

Launched Sep 21, 2025 from Cape Canaveral Space Force Station

Loading…

Next Passes (next 24 hours)

TLE

FreshSource: CelesTrak SupGP

Epoch: Sep 14, 2026, 23:16 UTC

1 65679C 25212D   26257.96993056 -.00057814  00000+0 -17078-2 0  2572
2 65679  53.1570 183.5134 0001400  92.2040 324.3690 15.34425475    11

Track STARLINK-35205 in real time with AllMySat

Download on the App Store